Home   Weather   Lage   Past weeks

Flag for Germany Past Weather in Lage, North Rhine-Westphalia, Germany — Yesterday and Last 2 Weeks

Now
59 °F

Cool.


Feels Like: 58 °F
Forecast: 54 / 67 °F
Wind: 6 mph from Southwest

Location: Bueckeburg

Current Time: Jul 28, 2017 at 1:01:19 am

Latest Report: Jul 28, 2017 at 12:20 am


Visibility: 3 mi

Pressure: 29.74 "Hg

Humidity: 82%

Dew Point: 54 °F

Location of LageLocation

Past Weather in Lage — Graph

°F

Lage Temperature Yesterday

Maximum temperature yesterday: 73 °F (at 2:20 pm)
Minimum temperature yesterday: 59 °F (at 12:20 am)
Average temperature yesterday: 66 °F

High & Low Weather Summary for the Past Weeks

 TemperatureHumidityPressure
High90 °F (Jul 19, 5:20 pm)100% (Jul 14, 11:20 pm)30.21 "Hg (Jul 14, 11:20 pm)
Low52 °F (Jul 13, 4:20 am)38% (Jul 14, 2:20 pm)29.65 "Hg (Jul 25, 3:20 pm)
Average64 °F78%29.93 "Hg
* Reported Jul 12 11:20 pm — Jul 27 11:20 pm, Lage. Weather by CustomWeather, © 2017

Note: Actual official high and low records may vary slightly from our data, if they occured in-between our weather recording intervals... More about our weather records

Advertising

Lage Weather History for the Previous 24 Hours

Scroll right to see more
 ConditionsComfort  
Time TempWeatherWind HumidityBarometerVisibility
11:20 pm
Thu, Jul 27
61 °FCool.2 mph83%29.71 "Hg2 mi
10:20 pm61 °FCool.7 mph83%29.71 "Hg2 mi
9:20 pm64 °FMild.6 mph73%29.71 "Hg2 mi
8:20 pm68 °FMild.9 mph60%29.71 "Hg2 mi
7:20 pm70 °FPartly sunny.9 mph60%29.71 "HgN/A
6:20 pm72 °FBroken clouds.10 mph53%29.71 "HgN/A
5:20 pm70 °FBroken clouds.8 mph60%29.68 "HgN/A
4:20 pm72 °FBroken clouds.12 mph53%29.71 "HgN/A
3:20 pm73 °FBroken clouds.12 mph47%29.71 "HgN/A
2:20 pm73 °FBroken clouds.14 mph47%29.71 "HgN/A
1:20 pm72 °FBroken clouds.14 mph53%29.71 "HgN/A
12:20 pm70 °FBroken clouds.10 mph64%29.71 "HgN/A
11:20 am70 °FBroken clouds.13 mph64%29.71 "HgN/A
10:20 am68 °FBroken clouds.12 mph73%29.71 "HgN/A
9:20 am66 °FBroken clouds.12 mph78%29.71 "HgN/A
8:51 am64 °FBroken clouds.12 mph88%29.71 "HgN/A
8:20 am64 °FPartly sunny.8 mph88%29.71 "HgN/A
7:20 am63 °FPartly sunny.10 mph94%29.71 "HgN/A
6:20 am61 °FBroken clouds.8 mph94%29.71 "Hg4 mi
5:20 am61 °FDrizzle. Fog.7 mph94%29.71 "Hg3 mi
5:03 am63 °FDrizzle. Fog.10 mph83%29.71 "Hg3 mi
4:20 am63 °FPassing clouds.10 mph77%29.71 "HgN/A
3:20 am63 °FPassing clouds.10 mph83%29.74 "HgN/A
2:20 am61 °FPassing clouds.7 mph88%29.74 "HgN/A
1:20 am59 °FPartly cloudy.7 mph94%29.74 "HgN/A
Weather by CustomWeather, © 2017

See weather overviewHow to use our weather pages